Time,TemperatureF,DewpointF,PressureIn,WindDirection,WindDirectionDegrees,WindSpeedMPH,WindSpeedGustMPH,Humidity,HourlyPrecipIn,Conditions,Clouds,dailyrainin,SolarRadiationWatts/m^2,SoftwareType,DateUTC
2013-05-24 00:02:00,74.0,41.0,-100.00,WSW,257,1.0,9.0,30,0.00,,,0.00,0.000000,,2013-05-24 06:02:00,
2013-05-24 00:12:00,74.0,41.0,-100.00,WSW,257,1.0,9.0,30,0.00,,,0.00,0.000000,,2013-05-24 06:12:00,
2013-05-24 00:21:00,74.0,41.0,-100.00,WSW,257,1.0,9.0,30,0.00,,,0.00,0.000000,,2013-05-24 06:21:00,
2013-05-24 00:32:00,74.0,41.0,-100.00,WSW,257,1.0,9.0,30,0.00,,,0.00,0.000000,,2013-05-24 06:32:00,
2013-05-24 00:42:00,66.0,38.0,-100.00,WNW,289,0.0,5.0,35,0.00,,,0.00,0.000000,,2013-05-24 06:42:00,
2013-05-24 01:01:00,66.0,38.0,-100.00,WNW,289,0.0,5.0,35,0.00,,,0.00,0.000000,,2013-05-24 07:01:00,
2013-05-24 01:11:00,66.0,38.0,-100.00,WNW,289,0.0,5.0,35,0.00,,,0.00,0.000000,,2013-05-24 07:11:00,
2013-05-24 01:22:00,66.0,38.0,-100.00,WNW,289,0.0,5.0,35,0.00,,,0.00,0.000000,,2013-05-24 07:22:00,
2013-05-24 01:32:00,66.0,38.0,-100.00,WNW,289,0.0,5.0,35,0.00,,,0.00,0.000000,,2013-05-24 07:32:00,
2013-05-24 01:42:00,59.0,37.0,-100.00,NNE,29,0.0,2.0,44,0.00,,,0.00,0.000000,,2013-05-24 07:42:00,
2013-05-24 02:02:00,59.0,37.0,-100.00,NNE,29,0.0,2.0,44,0.00,,,0.00,0.000000,,2013-05-24 08:02:00,
2013-05-24 02:11:00,59.0,37.0,-100.00,NNE,29,0.0,2.0,44,0.00,,,0.00,0.000000,,2013-05-24 08:11:00,
2013-05-24 02:22:00,59.0,37.0,-100.00,NNE,29,0.0,2.0,44,0.00,,,0.00,0.000000,,2013-05-24 08:22:00,
2013-05-24 02:32:00,59.0,37.0,-100.00,NNE,29,0.0,2.0,44,0.00,,,0.00,0.000000,,2013-05-24 08:32:00,
2013-05-24 02:42:00,55.0,42.0,-100.00,NE,56,0.0,0.0,62,0.00,,,0.00,0.000000,,2013-05-24 08:42:00,
2013-05-24 03:02:00,55.0,42.0,-100.00,NE,56,0.0,0.0,62,0.00,,,0.00,0.000000,,2013-05-24 09:02:00,
2013-05-24 03:11:00,55.0,42.0,-100.00,NE,56,0.0,0.0,62,0.00,,,0.00,0.000000,,2013-05-24 09:11:00,
2013-05-24 03:21:00,55.0,42.0,-100.00,NE,56,0.0,0.0,62,0.00,,,0.00,0.000000,,2013-05-24 09:21:00,
2013-05-24 03:32:00,55.0,42.0,-100.00,NE,56,0.0,0.0,62,0.00,,,0.00,0.000000,,2013-05-24 09:32:00,
2013-05-24 03:42:00,52.0,44.0,-100.00,North,350,0.0,0.0,73,0.00,,,0.00,0.000000,,2013-05-24 09:42:00,
2013-05-24 04:03:00,52.0,44.0,-100.00,North,350,0.0,0.0,73,0.00,,,0.00,0.000000,,2013-05-24 10:03:00,
2013-05-24 04:12:00,52.0,44.0,-100.00,North,350,0.0,0.0,73,0.00,,,0.00,0.000000,,2013-05-24 10:12:00,
2013-05-24 04:22:00,52.0,44.0,-100.00,North,350,0.0,0.0,73,0.00,,,0.00,0.000000,,2013-05-24 10:22:00,
2013-05-24 04:32:00,52.0,44.0,-100.00,North,350,0.0,0.0,73,0.00,,,0.00,0.000000,,2013-05-24 10:32:00,
2013-05-24 04:42:00,50.0,42.0,-100.00,East,97,0.0,0.0,73,0.00,,,0.00,0.000000,,2013-05-24 10:42:00,
2013-05-24 05:02:00,50.0,42.0,-100.00,East,97,0.0,0.0,73,0.00,,,0.00,0.000000,,2013-05-24 11:02:00,
2013-05-24 05:12:00,50.0,42.0,-100.00,East,97,0.0,0.0,73,0.00,,,0.00,0.000000,,2013-05-24 11:12:00,
2013-05-24 05:22:00,50.0,42.0,-100.00,East,97,0.0,0.0,73,0.00,,,0.00,0.000000,,2013-05-24 11:22:00,
2013-05-24 05:32:00,50.0,42.0,-100.00,East,97,0.0,0.0,73,0.00,,,0.00,0.000000,,2013-05-24 11:32:00,
2013-05-24 05:42:00,48.0,43.0,-100.00,ENE,70,0.0,2.0,82,0.00,,,0.00,0.000000,,2013-05-24 11:42:00,
2013-05-24 06:02:00,48.0,43.0,-100.00,ENE,70,0.0,2.0,82,0.00,,,0.00,0.000000,,2013-05-24 12:02:00,
2013-05-24 06:11:00,48.0,43.0,-100.00,ENE,70,0.0,2.0,82,0.00,,,0.00,0.000000,,2013-05-24 12:11:00,
2013-05-24 06:21:00,48.0,43.0,-100.00,ENE,70,0.0,2.0,82,0.00,,,0.00,0.000000,,2013-05-24 12:21:00,
2013-05-24 06:32:00,48.0,43.0,-100.00,ENE,70,0.0,2.0,82,0.00,,,0.00,0.000000,,2013-05-24 12:32:00,
2013-05-24 06:42:00,48.0,43.0,-100.00,WNW,292,1.0,4.0,82,0.00,,,0.00,11.000000,,2013-05-24 12:42:00,
2013-05-24 07:02:00,48.0,43.0,-100.00,WNW,292,1.0,4.0,82,0.00,,,0.00,11.000000,,2013-05-24 13:02:00,
2013-05-24 07:11:00,48.0,43.0,-100.00,WNW,292,1.0,4.0,82,0.00,,,0.00,11.000000,,2013-05-24 13:11:00,
2013-05-24 07:21:00,48.0,43.0,-100.00,WNW,292,1.0,4.0,82,0.00,,,0.00,11.000000,,2013-05-24 13:21:00,
2013-05-24 07:32:00,48.0,43.0,-100.00,WNW,292,1.0,4.0,82,0.00,,,0.00,11.000000,,2013-05-24 13:32:00,
2013-05-24 07:42:00,57.0,49.0,-100.00,ESE,119,0.0,3.0,75,0.00,,,0.00,86.000000,,2013-05-24 13:42:00,
2013-05-24 08:01:00,57.0,49.0,-100.00,ESE,119,0.0,3.0,75,0.00,,,0.00,86.000000,,2013-05-24 14:01:00,
2013-05-24 08:11:00,57.0,49.0,-100.00,ESE,119,0.0,3.0,75,0.00,,,0.00,86.000000,,2013-05-24 14:11:00,
2013-05-24 08:21:00,57.0,49.0,-100.00,ESE,119,0.0,3.0,75,0.00,,,0.00,86.000000,,2013-05-24 14:21:00,
2013-05-24 08:32:00,57.0,49.0,-100.00,ESE,119,0.0,3.0,75,0.00,,,0.00,86.000000,,2013-05-24 14:32:00,
2013-05-24 08:42:00,70.0,49.0,-100.00,SW,220,1.0,1.0,48,0.00,,,0.00,348.000000,,2013-05-24 14:42:00,
2013-05-24 09:02:00,70.0,49.0,-100.00,SW,220,1.0,1.0,48,0.00,,,0.00,348.000000,,2013-05-24 15:02:00,
2013-05-24 09:11:00,70.0,49.0,-100.00,SW,220,1.0,1.0,48,0.00,,,0.00,348.000000,,2013-05-24 15:11:00,
2013-05-24 09:21:00,70.0,49.0,-100.00,SW,220,1.0,1.0,48,0.00,,,0.00,348.000000,,2013-05-24 15:21:00,
2013-05-24 09:32:00,70.0,49.0,-100.00,SW,220,1.0,1.0,48,0.00,,,0.00,348.000000,,2013-05-24 15:32:00,
2013-05-24 09:42:00,77.0,48.0,-100.00,West,262,1.0,4.0,36,0.00,,,0.00,567.000000,,2013-05-24 15:42:00,
2013-05-24 10:03:00,77.0,48.0,-100.00,West,262,1.0,4.0,36,0.00,,,0.00,567.000000,,2013-05-24 16:03:00,
2013-05-24 10:12:00,77.0,48.0,-100.00,West,262,1.0,4.0,36,0.00,,,0.00,567.000000,,2013-05-24 16:12:00,
2013-05-24 10:22:00,77.0,48.0,-100.00,West,262,1.0,4.0,36,0.00,,,0.00,567.000000,,2013-05-24 16:22:00,
2013-05-24 10:32:00,77.0,48.0,-100.00,West,262,1.0,4.0,36,0.00,,,0.00,567.000000,,2013-05-24 16:32:00,
2013-05-24 10:42:00,80.0,43.0,-100.00,SSW,201,3.0,7.0,27,0.00,,,0.00,770.000000,,2013-05-24 16:42:00,
2013-05-24 11:02:00,80.0,43.0,-100.00,SSW,201,3.0,7.0,27,0.00,,,0.00,770.000000,,2013-05-24 17:02:00,
2013-05-24 11:12:00,80.0,43.0,-100.00,SSW,201,3.0,7.0,27,0.00,,,0.00,770.000000,,2013-05-24 17:12:00,
2013-05-24 11:22:00,80.0,43.0,-100.00,SSW,201,3.0,7.0,27,0.00,,,0.00,770.000000,,2013-05-24 17:22:00,
2013-05-24 11:32:00,80.0,43.0,-100.00,SSW,201,3.0,7.0,27,0.00,,,0.00,770.000000,,2013-05-24 17:32:00,
2013-05-24 11:42:00,85.0,42.0,-100.00,SW,228,3.0,8.0,22,0.00,,,0.00,916.000000,,2013-05-24 17:42:00,
2013-05-24 12:01:00,85.0,42.0,-100.00,SW,228,3.0,8.0,22,0.00,,,0.00,916.000000,,2013-05-24 18:01:00,
2013-05-24 12:12:00,85.0,42.0,-100.00,SW,228,3.0,8.0,22,0.00,,,0.00,916.000000,,2013-05-24 18:12:00,
2013-05-24 12:21:00,85.0,42.0,-100.00,SW,228,3.0,8.0,22,0.00,,,0.00,916.000000,,2013-05-24 18:21:00,
2013-05-24 12:32:00,85.0,42.0,-100.00,SW,228,3.0,8.0,22,0.00,,,0.00,916.000000,,2013-05-24 18:32:00,
2013-05-24 13:01:00,87.0,38.0,-100.00,SSW,209,3.0,9.0,18,0.00,,,0.00,961.000000,,2013-05-24 19:01:00,
2013-05-24 13:11:00,87.0,38.0,-100.00,SSW,209,3.0,9.0,18,0.00,,,0.00,961.000000,,2013-05-24 19:11:00,
2013-05-24 13:21:00,87.0,38.0,-100.00,SSW,209,3.0,9.0,18,0.00,,,0.00,961.000000,,2013-05-24 19:21:00,
2013-05-24 13:32:00,87.0,38.0,-100.00,SSW,209,3.0,9.0,18,0.00,,,0.00,961.000000,,2013-05-24 19:32:00,
2013-05-24 13:41:00,87.0,38.0,-100.00,SSW,209,3.0,9.0,18,0.00,,,0.00,961.000000,,2013-05-24 19:41:00,
2013-05-24 14:02:00,90.0,38.0,-100.00,SSW,209,3.0,8.0,16,0.00,,,0.00,970.000000,,2013-05-24 20:02:00,
2013-05-24 14:11:00,90.0,38.0,-100.00,SSW,209,3.0,8.0,16,0.00,,,0.00,970.000000,,2013-05-24 20:11:00,
2013-05-24 14:21:00,90.0,38.0,-100.00,SSW,209,3.0,8.0,16,0.00,,,0.00,970.000000,,2013-05-24 20:21:00,
2013-05-24 14:32:00,90.0,38.0,-100.00,SSW,209,3.0,8.0,16,0.00,,,0.00,970.000000,,2013-05-24 20:32:00,
2013-05-24 14:41:00,90.0,38.0,-100.00,SSW,209,3.0,8.0,16,0.00,,,0.00,970.000000,,2013-05-24 20:41:00,
2013-05-24 14:42:00,92.0,30.0,-100.00,SSE,153,3.0,10.0,11,0.00,,,0.00,970.000000,,2013-05-24 20:42:00,
2013-05-24 15:01:00,92.0,30.0,-100.00,SSE,153,3.0,10.0,11,0.00,,,0.00,970.000000,,2013-05-24 21:01:00,
2013-05-24 15:11:00,92.0,30.0,-100.00,SSE,153,3.0,10.0,11,0.00,,,0.00,970.000000,,2013-05-24 21:11:00,
2013-05-24 15:21:00,92.0,30.0,-100.00,SSE,153,3.0,10.0,11,0.00,,,0.00,970.000000,,2013-05-24 21:21:00,
2013-05-24 15:32:00,92.0,30.0,-100.00,SSE,153,3.0,10.0,11,0.00,,,0.00,970.000000,,2013-05-24 21:32:00,
2013-05-24 15:42:00,93.0,31.0,-100.00,SSE,164,3.0,10.0,11,0.00,,,0.00,915.000000,,2013-05-24 21:42:00,
2013-05-24 16:02:00,93.0,31.0,-100.00,SSE,164,3.0,10.0,11,0.00,,,0.00,915.000000,,2013-05-24 22:02:00,
2013-05-24 16:12:00,93.0,31.0,-100.00,SSE,164,3.0,10.0,11,0.00,,,0.00,915.000000,,2013-05-24 22:12:00,
2013-05-24 16:22:00,93.0,31.0,-100.00,SSE,164,3.0,10.0,11,0.00,,,0.00,915.000000,,2013-05-24 22:22:00,
2013-05-24 16:33:00,93.0,31.0,-100.00,SSE,164,3.0,10.0,11,0.00,,,0.00,915.000000,,2013-05-24 22:33:00,
2013-05-24 16:42:00,93.0,31.0,-100.00,SE,132,4.0,9.0,11,0.00,,,0.00,733.000000,,2013-05-24 22:42:00,
2013-05-24 17:02:00,93.0,31.0,-100.00,SE,132,4.0,9.0,11,0.00,,,0.00,733.000000,,2013-05-24 23:02:00,
2013-05-24 17:11:00,93.0,31.0,-100.00,SE,132,4.0,9.0,11,0.00,,,0.00,733.000000,,2013-05-24 23:11:00,
2013-05-24 17:22:00,93.0,31.0,-100.00,SE,132,4.0,9.0,11,0.00,,,0.00,733.000000,,2013-05-24 23:22:00,
2013-05-24 17:32:00,93.0,31.0,-100.00,SE,132,4.0,9.0,11,0.00,,,0.00,733.000000,,2013-05-24 23:32:00,
2013-05-24 18:01:00,91.0,29.0,-100.00,SSE,151,4.0,8.0,11,0.00,,,0.00,505.000000,,2013-05-25 00:01:00,
2013-05-24 18:11:00,91.0,29.0,-100.00,SSE,151,4.0,8.0,11,0.00,,,0.00,505.000000,,2013-05-25 00:11:00,
2013-05-24 18:21:00,91.0,29.0,-100.00,SSE,151,4.0,8.0,11,0.00,,,0.00,505.000000,,2013-05-25 00:21:00,
2013-05-24 18:32:00,91.0,29.0,-100.00,SSE,151,4.0,8.0,11,0.00,,,0.00,505.000000,,2013-05-25 00:32:00,
2013-05-24 18:41:00,91.0,29.0,-100.00,SSE,151,4.0,8.0,11,0.00,,,0.00,505.000000,,2013-05-25 00:41:00,
2013-05-24 18:42:00,84.0,26.0,-100.00,SSW,201,3.0,8.0,12,0.00,,,0.00,266.000000,,2013-05-25 00:42:00,
2013-05-24 19:01:00,84.0,26.0,-100.00,SSW,201,3.0,8.0,12,0.00,,,0.00,266.000000,,2013-05-25 01:01:00,
2013-05-24 19:11:00,84.0,26.0,-100.00,SSW,201,3.0,8.0,12,0.00,,,0.00,266.000000,,2013-05-25 01:11:00,
2013-05-24 19:22:00,84.0,26.0,-100.00,SSW,201,3.0,8.0,12,0.00,,,0.00,266.000000,,2013-05-25 01:22:00,
2013-05-24 19:32:00,84.0,26.0,-100.00,SSW,201,3.0,8.0,12,0.00,,,0.00,266.000000,,2013-05-25 01:32:00,
2013-05-24 19:42:00,81.0,33.0,-100.00,WSW,255,5.0,11.0,18,0.00,,,0.00,45.000000,,2013-05-25 01:42:00,
2013-05-24 20:02:00,81.0,33.0,-100.00,WSW,255,5.0,11.0,18,0.00,,,0.00,45.000000,,2013-05-25 02:02:00,
2013-05-24 20:12:00,81.0,33.0,-100.00,WSW,255,5.0,11.0,18,0.00,,,0.00,45.000000,,2013-05-25 02:12:00,
2013-05-24 20:21:00,81.0,33.0,-100.00,WSW,255,5.0,11.0,18,0.00,,,0.00,45.000000,,2013-05-25 02:21:00,
2013-05-24 20:32:00,81.0,33.0,-100.00,WSW,255,5.0,11.0,18,0.00,,,0.00,45.000000,,2013-05-25 02:32:00,
2013-05-24 20:42:00,76.0,27.0,-100.00,WNW,301,1.0,9.0,16,0.00,,,0.00,6.000000,,2013-05-25 02:42:00,
2013-05-24 21:02:00,76.0,27.0,-100.00,WNW,301,1.0,9.0,16,0.00,,,0.00,6.000000,,2013-05-25 03:02:00,
2013-05-24 21:11:00,76.0,27.0,-100.00,WNW,301,1.0,9.0,16,0.00,,,0.00,6.000000,,2013-05-25 03:11:00,
2013-05-24 21:21:00,76.0,27.0,-100.00,WNW,301,1.0,9.0,16,0.00,,,0.00,6.000000,,2013-05-25 03:21:00,
2013-05-24 21:32:00,76.0,27.0,-100.00,WNW,301,1.0,9.0,16,0.00,,,0.00,6.000000,,2013-05-25 03:32:00,
2013-05-24 21:42:00,75.0,26.0,-100.00,SSE,165,2.0,4.0,16,0.00,,,0.00,0.000000,,2013-05-25 03:42:00,
2013-05-24 22:02:00,75.0,26.0,-100.00,SSE,165,2.0,4.0,16,0.00,,,0.00,0.000000,,2013-05-25 04:02:00,
2013-05-24 22:13:00,75.0,26.0,-100.00,SSE,165,2.0,4.0,16,0.00,,,0.00,0.000000,,2013-05-25 04:13:00,
2013-05-24 22:23:00,75.0,26.0,-100.00,SSE,165,2.0,4.0,16,0.00,,,0.00,0.000000,,2013-05-25 04:23:00,
2013-05-24 22:33:00,75.0,26.0,-100.00,SSE,165,2.0,4.0,16,0.00,,,0.00,0.000000,,2013-05-25 04:33:00,
2013-05-24 22:42:00,73.0,21.0,-100.00,SW,218,2.0,6.0,14,0.00,,,0.00,0.000000,,2013-05-25 04:42:00,
2013-05-24 23:02:00,73.0,21.0,-100.00,SW,218,2.0,6.0,14,0.00,,,0.00,0.000000,,2013-05-25 05:02:00,
2013-05-24 23:12:00,73.0,21.0,-100.00,SW,218,2.0,6.0,14,0.00,,,0.00,0.000000,,2013-05-25 05:12:00,
2013-05-24 23:22:00,73.0,21.0,-100.00,SW,218,2.0,6.0,14,0.00,,,0.00,0.000000,,2013-05-25 05:22:00,
2013-05-24 23:32:00,73.0,21.0,-100.00,SW,218,2.0,6.0,14,0.00,,,0.00,0.000000,,2013-05-25 05:32:00,
2013-05-24 23:42:00,67.0,25.0,-100.00,ENE,57,1.0,6.0,20,0.00,,,0.00,0.000000,,2013-05-25 05:42:00,